www.pogodaiklimat.ru

Погода и климат >> Архив погоды >> Россия >> Самарская область >> Авангард Зерносовхоз


ПОГОДА в Авангард Зерносовхозе

  • Прогноз погоды в Авангард Зерносовхозе
  • Монитор погоды в Авангард Зерносовхозе

АРХИВ ПОГОДЫ в Авангард Зерносовхозе

Время (UTC), дата Ветер
(напр.,м/с)
 
Видим.   Явления Облачность Т
(С)
Тd
(С)
f
(%)
Тe
(С)
Тes
(С)
Комфортность P
(гПа)
Po
(гПа)
Тmin
(С)
Tmax
(С)
R
(мм)
R24
(мм)
S
(см)
12 18.05 З 7-13
{13}
20 км 8/8 600 м
[Cb cap]
+18.2 +1.0 31 +18 +18 1010.0 999.4
15 18.05 СЗ 4
{13}
20 км 8/8 600 м
[Sc]
+17.2 +3.3 39 +17 +17 1009.3 998.6 +19.1
18 18.05 С 2 50 км 4/3 300 м
[Sc diur, vesp Ci fib]
+9.6 +5.3 75 +8 +8 1011.1 1000.2
21 18.05 С 3 50 км 8/0
[Ac As]
+8.2 +0.9 60 +6 +6 1011.9 1000.9
00 19.05 штиль 0 50 км 8/0
[Ac cast]
+6.2 +3.2 81 +5 +5 1011.9 1000.8
03 19.05 ЮЗ 2 20 км 3/3 600 м
[Sc]
+9.4 -1.2 47 +8 +10 1011.2 1000.2 +5.7
06 19.05 З 5-11
{11}
20 км 8/4 600 м
[Sc Ac trans Ci sp]
+14.1 +0.2 39 +13 +15 1010.1 999.3
09 19.05 СЗ 6-12
{14}
20 км 8/6 600 м
[Cu med, cong Ci sp]
+14.5 +2.6 45 +13 +15 1009.7 999.0
12 19.05 СЗ 5
{13}
20 км 6/5 600 м
[Cu med, cong Ci sp]
+14.6 -0.9 34 +13 +16 1010.5 999.7
15 19.05 С 4
{11}
20 км 6/3 1000 м
[Sc diur, vesp Ci sp]
+12.4 -1.9 37 +11 +11 1011.4 1000.5 +14.9
18 19.05 С 2
{10}
50 км 1/1 600 м
[Sc diur, vesp]
+6.2 -1.3 59 +4 +4 1014.0 1002.8
21 19.05 С 4 50 км 8/0
[Ac lent]
+6.6 -1.0 58 +3 +3 1014.6 1003.5
00 20.05 С 2 50 км ясно +1.6 -1.4 80 -2 -2 1016.1 1004.7
03 20.05 С 3 20 км ясно +5.1 +0.2 71 +2 +4 1017.0 1005.8 +1.2
06 20.05 С 4 20 км 8/8 600 м
[Cu med, cong]
+9.4 -1.7 46 +7 +9 1017.4 1006.4
09 20.05 С 4 20 км 10/10 600 м
[Cb cap]
+9.8 -0.2 50 +8 +8 1017.4 1006.4
12 20.05 СЗ 4 20 км 9/9 600 м
[Cb cap]
+11.2 +0.5 48 +9 +10 1016.7 1005.7
15 20.05 СЗ 5
{10}
20 км 8/6 600 м
[Cb cap Ac trans]
+10.2 -1.1 45 +8 +8 1016.9 1005.9 +12.4
18 20.05 С 1 50 км 3/3 600 м
[Sc diur, vesp Ci sp]
+5.8 -0.4 64 +5 +5 1018.5 1007.3
21 20.05 В 1 50 км 4/0
[Ac lent Cc]
-0.1 -1.9 88 -2 -2 1018.9 1007.4
00 21.05 В 1 50 км 1/0
[Ac lent]
-1.9 -3.5 89 -4 -4 1019.0 1007.5
03 21.05 З 1 20 км ясно +6.9 +2.0 71 +6 +9 1019.9 1008.7 -2.8
06 21.05 СЗ 4 20 км 4/4 600 м
[Cu med, cong]
+12.8 +0.7 44 +11 +16 1020.1 1009.1
09 21.05 СЗ 5
{10}
20 км 8/8 600 м
[Sc diur, vesp]
+13.9 -1.4 35 +12 +14 1019.8 1008.9
12 21.05 СЗ 4
{11}
20 км 8/8 600 м
[Sc diur, vesp]
+15.0 -1.8 31 +14 +15 1019.5 1008.6
15 21.05 СЗ 3
{10}
20 км 4/4 600 м
[Sc]
+15.8 -1.3 31 +16 +16 1018.7 1007.9 +16.7
18 21.05 В 1 50 км 1/1 600 м
[Sc diur, vesp]
+4.0 -1.0 70 +3 +3 1019.5 1008.2
21 21.05 В 3 50 км ясно +2.9 -1.6 72 -1 -1 1019.6 1008.2
00 22.05 Ю 1 50 км 8/0
[Ac lent]
+6.3 -0.8 60 +6 +6 1019.2 1008.0
03 22.05 ЮЗ 2 20 км 10/0
[Ac und]
+12.1 +1.0 47 +11 +12 1018.3 1007.3 +1.8
06 22.05 Ю 1 20 км 9/0
[Ac lent]
+15.8 +2.4 40 +17 +21 1017.8 1007.0
09 22.05 СЗ 2 20 км 10/3 300 м
[Sc As op]
+19.3 +0.8 29 +20 +22 1016.8 1006.1
12 22.05 В 5 20 км 10/3 300 м
[Sc As trans]
+15.9 +6.0 52 +15 +16 1015.7 1004.9
15 22.05 ЮВ 5 20 км 9/6 600 м
[Cb cap Ac lent]
+16.1 +5.9 51 +15 +15 1013.6 1002.9 +19.5
18 22.05 В 4
{11}
50 км в посл. час ливневой дождь 10/10 600 м
[Cb cap]
+12.6 +10.2 85 +11 +11 1014.0 1003.1
21 22.05 В 1 50 км 8/6 600 м
[Cb cap Ci]
+11.7 +7.0 73 +12 +12 1013.2 1002.3
00 23.05 ЮЗ 5 50 км 6/4 600 м
[Cb cap Ci sp]
+13.5 +4.8 56 +12 +12 1011.8 1001.0
03 23.05 ЮЗ 6
{10}
20 км 10/0
[Ac lent Ci sp]
+15.6 +5.5 51 +14 +15 1011.1 1000.4 +11.2 1
06 23.05 ЮЗ 7-11
{13}
20 км 10/3 300 м
[Sc Ci]
+21.6 +4.1 32 +22 +24 комфорт 1010.5 1000.0
09 23.05 ЮЗ 7-13
{13}
20 км 8/4 600 м
[Cu hum Ac cast Cc]
+23.9 +1.6 23 +23 +25 комфорт 1009.2 998.8
12 23.05 ЮЗ 8-14
{14}
20 км 8/5 600 м
[Cu hum Ci sp]
+24.0 +3.7 27 +24 +24 комфорт 1007.5 997.1
15 23.05 ЮЗ 7-11
{14}
20 км 8/0
[Ac lent Ci fib]
+21.2 +3.3 31 +21 +22 комфорт 1006.7 996.2 +24.4
18 23.05 Ю 2
{11}
50 км 6/1 600 м
[Sc diur, vesp Ci fib]
+14.2 +4.7 53 +14 +14 1006.4 995.7
21 23.05 ЮЗ 4 50 км 4/0
[Ci fib]
+15.0 +5.9 54 +14 +14 1005.2 994.5
00 24.05 Ю 4 50 км 1/1 600 м
[Sc]
+11.7 +5.2 64 +10 +10 1004.3 993.5
03 24.05 ЮЗ 5 20 км 6/3 600 м
[Sc Ci fib]
+16.8 +9.2 61 +16 +17 1003.3 992.7 +10.8
06 24.05 З 3
{11}
20 км в посл. час ливневой дождь 10/10 600 м
[Cb cap]
+15.2 +13.0 87 +14 +14 1004.2 993.5
09 24.05 С 4 20 км {ливн. осадки} 10/10 300 м
[Cb cap]
+12.0 +10.8 92 +10 +10 1006.8 996.0
12 24.05 С 7-12
{12}
20 км {ливн. осадки} 10/10 600 м
[Cb cap]
+10.7 +6.2 74 +7 +7 1009.7 998.8
15 24.05 С 5-10
{12}
20 км 5/3 600 м
[Sc diur, vesp Ci fib]
+11.8 +3.3 56 +10 +10 1011.6 1000.7 +18.9 5
18 24.05 С 2
{10}
50 км ясно +7.5 +1.7 67 +6 +6 1015.0 1003.9
21 24.05 штиль 0 50 км ясно +0.3 -0.4 95 -1 -1 1017.4 1006.0
00 25.05 С 1 20 км ясно -3.1 -4.3 91 -5 -5 1019.7 1008.1
03 25.05 С 1 20 км ясно +4.5 +1.9 83 +3 +7 1020.9 1009.6 -3.1
06 25.05 В 2 20 км 1/0
[Ci sp]
+11.6 -2.2 38 +11 +23 опасность
простуды
1021.5 1010.5
09 25.05 В 2 20 км 3/0
[Ci sp]
+13.8 -1.8 34 +14 +29 опасность
простуды
1020.8 1009.9

 

Местоположение метеостанции Авангард Зерносовхоз (Самарская область, Россия): широта 52.62 долгота 51.28 высота над уровнем моря 88 м.

В архиве по умолчанию представлена погода в Авангард Зерносовхозе за последнюю неделю. Архивные данные за месяц целиком и за предыдущие месяцы, начиная с января 2011 года, Вы можете получить, выбрав интересующий диапазон дат из раскрывающегося списка и нажав кнопку "Ввод!".


*Определитесь, кто Вы:
робот инопланетянин человек

Внимание! Время в таблицах - всемирное. Для получения местного времени необходимо прибавить поправку, которая равна 4 ч.

Смотрите также архив погоды в соседних городах и на ближайших метеорологических станциях:

Погода в Богатом (Самарская область, Россия) (51 км)
Погода в Красносамарском (Самарская область, Россия) (57 км)
Погода в Большая Глушица (Самарская область, Россия) (61 км)
Погода в Бузулуке (Оренбургская область, Россия) (67 км)
Погода в Первомайском (Оренбургская область, Россия) (84 км)
Погода в Аглосе (Самарская область, Россия) (88 км)
Погода в Самаре-Центр (Самарская область, Россия) (92 км)
Погода в Кинель-Черкассах (Самарская область, Россия) (97 км)
Погода в Самаре АМС (Самарская область, Россия) (100 км)
Погода в Самаре (Самарская область, Россия) (100 км)

Пояснения к столбцам:

Ветер - указаны скорость ветра в м/с - средняя за 10 мин, порывы в срок и между сроками (в фигурных скобках) и направление, откуда дует ветер: С - северный, СВ - северо-восточный, В - восточный, ЮВ - юго-восточный, Ю - южный, ЮЗ - юго-западный, З - западный, СЗ - северо-западный.
Видимость - горизонтальная дальность видимости в метрах или километрах. При видимости от 1 до 10 км при отсутствии осадков обычно наблюдается дымка, при ухудшении видимости до 1 км и менее - туман. В сухую погоду видимость может ухудшаться дымом, пылью или мглою.
Явления - указаны атмосферные явления, наблюдавшиеся в срок или в последний час перед сроком; фигурными скобками обозначены явления, наблюдавшиеся между сроками (за 1-3 часа до срока); квадратными скобками обозначены град или гололедные отложения с указанием их диаметра в мм.
Облачность - указаны через наклонную черту общая и нижняя облачность в баллах и высота нижней границы облаков в метрах; квадратными скобками обозначены формы облаков: Ci - перистые, Cs - перисто-слоистые, Cc - перисто-кучевые, Ac - высококучевые, As - высокослоистые, Sc - слоисто-кучевые, Ns - слоисто-дождевые, Cu - кучевые, Cb - кучево-дождевые. Подробнее классификацию облаков см. в Атласе облаков (PDF).
T - Температура воздуха - температура, измеренная на высоте 2 м над землей.
Td - Температура точки росы - температура, при понижении до которой содержащийся в воздухе водяной пар достигнет насыщения.
f - Относительная влажность воздуха - влажноcть воздуха, измеренная на высоте 2 м над землей.
Te - Эффективная температура - температура, которую ощущает одетый по сезону человек в тени. Характеристика душности погоды. При расчете учитывается влияние влажности воздуха и скорости ветра на теплоощущения человека.
Tes - Эффективная температура на солнце - температура, которую ощущает человек, с поправкой на солнечный нагрев. Характеристика знойности погоды. Зависит от высоты солнца над горизонтом, облачности и скорости ветра. Ночью, в пасмурную погоду, а также при ветре 12 м/с и более поправка равна нулю.
P - Атмосферное давление - приведенное к уровню моря атмосферное давление.
Po - Атмосферное давление - измеренное на уровне метеостанции атмосферное давление.
Tmin - Минимальная температура - минимум температуры воздуха на высоте 2 м над землей.
Tmax - Максимальная температура - максимум температуры воздуха на высоте 2 м над землей.
R - Количество осадков - Количество выпавших осадков за период времени, мм. При наведении курсора мыши на число - период времени, за который выпало указанное количество осадков.
R24 - Количество осадков - Количество выпавших осадков за 24 часа, мм.
S - Снежный покров - Высота снежного покрова, см. При наведении курсора мыши на число - состояние снежного покрова и степень покрытия местности в баллах.